Kenai, AK

8:10 PM AKDT on June 25, 2017 (GMT -0800)
Kenai Municipal

Weather History for PAEN - October, 2014

Change the Weather History Date:

Friday, October 31, 2014

  Actual Average Record
Temperature  
Mean Temperature 21 °F -  
Max Temperature 32 °F 34 °F 52 °F (2016)
Min Temperature 12 °F 19 °F -8 °F (1961)
Degree Days  
Heating Degree Days 44    
Moisture  
Dew Point 19 °F    
Average Humidity 82    
Maximum Humidity 92    
Minimum Humidity 69    
Precipitation  
Precipitation 0.00 in - - ()
Sea Level Pressure  
Sea Level Pressure 29.24 in    
Wind  
Wind Speed 7 mph (NE)    
Max Wind Speed 16 mph    
Max Gust Speed -    
Visibility 10 miles    
Events      
Averages and records for this station are not official NWS values.
T = Trace of Precipitation, MM = Missing Value Source: NWS Daily Summary

Daily Weather History Graph

Daily Weather History Graph

Search for Another Location

Airport or City:

Trip Planner

Search our weather history database for the weather conditions in past years. The results will help you decide how hot, cold, wet, or windy it might be!

Date:

Astronomy

Oct. 31, 2014 Rise Set
Actual Time 9:27 AM AKDT 6:08 PM AKDT
Civil Twilight 8:41 AM AKDT 6:54 PM AKDT
Nautical Twilight 7:51 AM AKDT 7:44 PM AKDT
Astronomical Twilight 7:02 AM AKDT 8:33 PM AKDT
Moon 4:06 PM AKDT (10/31) 12:39 AM AKDT (10/31)
Length of Visible Light 10h 12m
Length of Day
8h 40m
First Quarter, 58% of the Moon is Illuminated
Oct 31
First Quarter
Nov 6
Full
Nov 14
Last Quarter
Nov 22
New
Nov 29
First Quarter

Hourly Weather History & Observations

Time (AKDT) Temp. Windchill Dew Point Humidity Pressure Visibility Wind Dir Wind Speed Gust Speed Precip Events Conditions
12:53 AM 15.1 °F 7.7 °F 12.0 °F 88% 29.37 in 8.0 mi NE 4.6 mph - N/A   Clear
1:53 AM 12.9 °F - 10.9 °F 92% 29.35 in 10.0 mi Calm Calm - N/A   Clear
2:53 AM 14.0 °F 5.1 °F 10.9 °F 88% 29.34 in 10.0 mi ENE 5.8 mph - N/A   Clear
3:53 AM 12.9 °F 5.2 °F 10.0 °F 88% 29.33 in 10.0 mi NE 4.6 mph - N/A   Clear
4:53 AM 12.9 °F - 10.9 °F 92% 29.32 in 10.0 mi Calm Calm - N/A   Clear
5:53 AM 15.1 °F 9.4 °F 12.0 °F 88% 29.31 in 10.0 mi NNE 3.5 mph - N/A   Clear
6:53 AM 14.0 °F 5.1 °F 10.9 °F 88% 29.28 in 10.0 mi NE 5.8 mph - N/A   Clear
7:53 AM 15.1 °F 6.4 °F 10.9 °F 84% 29.27 in 10.0 mi NE 5.8 mph - N/A   Mostly Cloudy
8:53 AM 19.9 °F 11.1 °F 16.0 °F 85% 29.26 in 10.0 mi NNE 6.9 mph - N/A   Overcast
9:53 AM 21.9 °F 13.4 °F 19.0 °F 89% 29.26 in 10.0 mi NE 6.9 mph - N/A   Overcast
10:53 AM 23.0 °F 13.1 °F 19.0 °F 85% 29.24 in 10.0 mi NE 9.2 mph - N/A   Overcast
11:53 AM 25.0 °F 15.5 °F 21.0 °F 85% 29.24 in 10.0 mi NE 9.2 mph - N/A   Overcast
12:53 PM 26.6 °F 15.2 °F 21.2 °F 80% 29.22 in 10.0 mi NE 13.8 mph - N/A   Overcast
1:53 PM 28.0 °F 16.1 °F 21.0 °F 75% 29.21 in 10.0 mi NE 16.1 mph - N/A   Overcast
2:53 PM 28.9 °F 18.2 °F 23.0 °F 78% 29.20 in 10.0 mi NNE 13.8 mph - N/A   Overcast
3:16 PM 28.9 °F 19.2 °F 24.1 °F 82% 29.19 in 10.0 mi North 11.5 mph - N/A   Overcast
3:40 PM 30.0 °F 22.4 °F 24.1 °F 79% 29.19 in 10.0 mi North 8.1 mph - N/A   Overcast
3:53 PM 28.9 °F 21.1 °F 24.1 °F 82% 29.20 in 10.0 mi North 8.1 mph - N/A   Overcast
4:53 PM 30.0 °F 20.5 °F 21.0 °F 69% 29.20 in 10.0 mi NE 11.5 mph - N/A   Overcast
5:53 PM 28.9 °F 21.1 °F 21.9 °F 75% 29.20 in 10.0 mi NE 8.1 mph - N/A   Mostly Cloudy
6:53 PM 28.0 °F 20.0 °F 21.9 °F 78% 29.21 in 10.0 mi NE 8.1 mph - N/A   Clear
7:53 PM 28.0 °F 19.3 °F 21.9 °F 78% 29.21 in 10.0 mi NE 9.2 mph - N/A   Partly Cloudy
8:53 PM 28.9 °F 21.1 °F 23.0 °F 78% 29.20 in 10.0 mi NNE 8.1 mph - N/A   Overcast
9:53 PM 28.9 °F 21.1 °F 24.1 °F 82% 29.20 in 10.0 mi NNE 8.1 mph - N/A   Overcast
10:53 PM 30.9 °F 21.7 °F 24.1 °F 76% 29.19 in 10.0 mi NNE 11.5 mph - N/A   Overcast
11:53 PM 30.9 °F 20.7 °F 24.1 °F 76% 29.19 in 10.0 mi NNE 13.8 mph - N/A   Overcast